Alma, MI

8:43 PM EDT on April 27, 2017 (GMT -0400)
Gratiot Community

Weather History for KAMN - July, 2013

Change the Weather History Date:

Friday, July 12, 2013

  Actual Average Record
Temperature  
Mean Temperature 64 °F -  
Max Temperature 79 °F 82 °F 95 °F (1952)
Min Temperature 48 °F 57 °F 44 °F (2002)
Degree Days  
Heating Degree Days 2    
Growing Degree Days 14 (Base 50)    
Moisture  
Dew Point 55 °F    
Average Humidity 73    
Maximum Humidity 97    
Minimum Humidity 38    
Precipitation  
Precipitation 0.00 in - - ()
Sea Level Pressure  
Sea Level Pressure 30.16 in    
Wind  
Wind Speed 2 mph (ENE)    
Max Wind Speed 8 mph    
Max Gust Speed -    
Visibility 8 miles    
Events Fog    
Averages and records for this station are not official NWS values.
T = Trace of Precipitation, MM = Missing Value Source: NWS Daily Summary

Daily Weather History Graph

Daily Weather History Graph

Search for Another Location

Airport or City:

Trip Planner

Search our weather history database for the weather conditions in past years. The results will help you decide how hot, cold, wet, or windy it might be!

Date:

Astronomy

Jul. 12, 2013 Rise Set
Actual Time 6:09 AM EDT 9:18 PM EDT
Civil Twilight 5:35 AM EDT 9:53 PM EDT
Nautical Twilight 4:50 AM EDT 10:37 PM EDT
Astronomical Twilight 3:56 AM EDT 11:30 PM EDT
Moon 10:34 AM EDT (7/12) 11:18 PM EDT (7/12)
Length of Visible Light 16h 17m
Length of Day
15h 08m
Waxing Crescent, 17% of the Moon is Illuminated
Jul 12
Waxing Crescent
Jul 15
First Quarter
Jul 22
Full
Jul 29
Last Quarter
Aug 6
New

Hourly Weather History & Observations

Time (EDT) Temp. Dew Point Humidity Pressure Visibility Wind Dir Wind Speed Gust Speed Precip Events Conditions
12:15 AM 59.2 °F 56.5 °F 91% 30.11 in 10.0 mi ENE 4.6 mph - N/A   Clear
12:34 AM 58.6 °F 56.3 °F 92% 30.11 in 10.0 mi NE 3.5 mph - N/A   Clear
12:54 AM 58.1 °F 56.3 °F 94% 30.12 in 10.0 mi Calm Calm - N/A   Clear
1:14 AM 58.3 °F 56.5 °F 94% 30.12 in 10.0 mi Calm Calm - N/A   Clear
1:34 AM 58.1 °F 56.3 °F 94% 30.11 in 10.0 mi Calm Calm - N/A   Clear
1:55 AM 55.6 °F 54.0 °F 94% 30.12 in 10.0 mi Calm Calm - N/A   Clear
2:14 AM 54.5 °F 53.1 °F 95% 30.12 in 10.0 mi Calm Calm - N/A   Clear
2:35 AM 54.0 °F 52.9 °F 96% 30.13 in 3.0 mi Calm Calm - N/A   Clear
2:54 AM 53.4 °F 52.2 °F 95% 30.13 in 10.0 mi Calm Calm - N/A   Clear
3:14 AM 53.6 °F 52.5 °F 96% 30.13 in 10.0 mi Calm Calm - N/A   Clear
3:34 AM 54.0 °F 53.1 °F 97% 30.13 in 0.5 mi Calm Calm - N/A Fog Fog
3:55 AM 54.7 °F 53.8 °F 97% 30.14 in 1.5 mi Calm Calm - N/A   Scattered Clouds
4:14 AM 52.5 °F 51.6 °F 97% 30.15 in 5.0 mi Calm Calm - N/A   Scattered Clouds
4:35 AM 53.1 °F 52.2 °F 97% 30.15 in 1.0 mi Calm Calm - N/A   Mist
4:54 AM 50.5 °F 49.6 °F 97% 30.16 in 1.5 mi Calm Calm - N/A   Mostly Cloudy
5:15 AM 52.0 °F 51.3 °F 97% 30.16 in 0.8 mi Calm Calm - N/A   Overcast
5:34 AM 52.2 °F 51.4 °F 97% 30.16 in 0.5 mi Calm Calm - N/A Fog Fog
5:54 AM 50.0 °F 49.1 °F 97% 30.16 in 0.5 mi Calm Calm - N/A Fog Fog
6:14 AM 48.6 °F 47.7 °F 97% 30.16 in 0.2 mi Calm Calm - N/A Fog Fog
6:35 AM 49.1 °F 48.4 °F 97% 30.17 in 0.2 mi Calm Calm - N/A Fog Fog
6:54 AM 50.4 °F 49.6 °F 97% 30.18 in 2.0 mi Calm Calm - N/A   Overcast
7:15 AM 53.1 °F 52.3 °F 97% 30.19 in 5.0 mi Calm Calm - N/A   Scattered Clouds
7:34 AM 55.8 °F 55.0 °F 97% 30.19 in 10.0 mi Calm Calm - N/A   Clear
7:55 AM 57.6 °F 56.8 °F 97% 30.19 in 10.0 mi Calm Calm - N/A   Clear
8:14 AM 59.0 °F 57.7 °F 96% 30.20 in 10.0 mi North 3.5 mph - N/A   Clear
8:35 AM 60.4 °F 58.1 °F 92% 30.19 in 10.0 mi ENE 3.5 mph - N/A   Clear
8:54 AM 62.4 °F 58.3 °F 86% 30.19 in 10.0 mi East 3.5 mph - N/A   Clear
9:15 AM 63.1 °F 57.6 °F 82% 30.20 in 10.0 mi NNE 3.5 mph - N/A   Clear
9:34 AM 65.1 °F 56.3 °F 73% 30.20 in 10.0 mi NNE 5.8 mph - N/A   Clear
9:55 AM 66.4 °F 56.3 °F 70% 30.19 in 10.0 mi East 3.5 mph - N/A   Clear
10:14 AM 67.5 °F 56.8 °F 69% 30.19 in 10.0 mi NE 4.6 mph - N/A   Clear
10:35 AM 68.4 °F 57.2 °F 67% 30.19 in 10.0 mi NE 8.1 mph - N/A   Clear
10:55 AM 69.6 °F 57.7 °F 66% 30.19 in 10.0 mi ENE 5.8 mph - N/A   Clear
11:15 AM 69.8 °F 57.7 °F 65% 30.19 in 10.0 mi Calm Calm - N/A   Clear
11:34 AM 70.7 °F 57.9 °F 64% 30.19 in 10.0 mi East 6.9 mph - N/A   Clear
11:55 AM 71.2 °F 58.1 °F 63% 30.19 in 10.0 mi SE 4.6 mph - N/A   Clear
12:14 PM 71.4 °F 57.7 °F 62% 30.18 in 10.0 mi ESE 5.8 mph - N/A   Clear
12:35 PM 72.1 °F 57.4 °F 60% 30.18 in 7.0 mi Calm Calm - N/A   Clear
12:54 PM 73.0 °F 57.9 °F 59% 30.18 in 10.0 mi NE 4.6 mph - N/A   Clear
1:15 PM 73.9 °F 57.4 °F 56% 30.18 in 10.0 mi Calm Calm - N/A   Clear
1:35 PM 75.6 °F 58.1 °F 55% 30.17 in 10.0 mi NE 6.9 mph - N/A   Clear
1:54 PM 75.2 °F 55.2 °F 50% 30.17 in 10.0 mi North 3.5 mph - N/A   Clear
2:15 PM 76.3 °F 55.0 °F 48% 30.17 in 10.0 mi East 4.6 mph - N/A   Clear
2:34 PM 77.0 °F 54.5 °F 46% 30.16 in 10.0 mi East 3.5 mph - N/A   Clear
2:55 PM 77.7 °F 55.2 °F 46% 30.16 in 10.0 mi East 4.6 mph - N/A   Clear
3:15 PM 77.9 °F 55.6 °F 46% 30.16 in 10.0 mi NNE 4.6 mph - N/A   Clear
3:35 PM 78.4 °F 55.4 °F 45% 30.16 in 10.0 mi East 4.6 mph - N/A   Clear
3:54 PM 78.1 °F 52.5 °F 41% 30.17 in 10.0 mi Calm Calm - N/A   Clear
4:15 PM 78.8 °F 54.3 °F 43% 30.16 in 10.0 mi ENE 4.6 mph - N/A   Clear
4:34 PM 78.8 °F 53.2 °F 41% 30.15 in 10.0 mi Calm Calm - N/A   Clear
4:55 PM 79.3 °F 52.9 °F 40% 30.15 in 10.0 mi ENE 4.6 mph - N/A   Clear
5:15 PM 78.8 °F 53.1 °F 41% 30.15 in 10.0 mi Calm Calm - N/A   Clear
5:35 PM 79.0 °F 52.7 °F 40% 30.14 in 10.0 mi ESE 4.6 mph - N/A   Clear
5:54 PM 79.5 °F 53.6 °F 41% 30.14 in 10.0 mi ESE 4.6 mph - N/A   Clear
6:15 PM 79.2 °F 51.6 °F 38% 30.14 in 10.0 mi East 3.5 mph - N/A   Clear
6:34 PM 79.0 °F 53.6 °F 41% 30.14 in 10.0 mi SE 3.5 mph - N/A   Clear
6:55 PM 78.8 °F 54.0 °F 42% 30.14 in 10.0 mi Calm Calm - N/A   Clear
7:15 PM 78.8 °F 55.2 °F 44% 30.14 in 10.0 mi East 3.5 mph - N/A   Clear
7:34 PM 78.4 °F 54.0 °F 43% 30.14 in 10.0 mi Calm Calm - N/A   Clear
7:55 PM 77.9 °F 54.3 °F 44% 30.14 in 10.0 mi East 3.5 mph - N/A   Clear
8:15 PM 76.8 °F 56.3 °F 49% 30.14 in 10.0 mi Calm Calm - N/A   Clear
8:35 PM 75.2 °F 58.1 °F 55% 30.14 in 10.0 mi East 3.5 mph - N/A   Clear
8:54 PM 73.4 °F 59.2 °F 61% 30.14 in 10.0 mi East 3.5 mph - N/A   Clear
9:15 PM 70.0 °F 59.9 °F 70% 30.14 in 10.0 mi Calm Calm - N/A   Clear
9:35 PM 66.0 °F 59.2 °F 79% 30.15 in 10.0 mi Calm Calm - N/A   Clear
9:55 PM 65.3 °F 59.4 °F 81% 30.15 in 10.0 mi Calm Calm - N/A   Clear
10:15 PM 62.8 °F 59.4 °F 89% 30.16 in 10.0 mi Calm Calm - N/A   Clear
10:35 PM 64.8 °F 60.1 °F 85% 30.16 in 10.0 mi NE 3.5 mph - N/A   Clear
10:55 PM 64.4 °F 59.9 °F 85% 30.16 in 10.0 mi Calm Calm - N/A   Clear
11:14 PM 62.1 °F 58.6 °F 89% 30.16 in 10.0 mi Calm Calm - N/A   Clear
11:35 PM 61.9 °F 59.9 °F 93% 30.16 in 10.0 mi Calm Calm - N/A   Clear
11:55 PM 61.7 °F 59.9 °F 94% 30.16 in 10.0 mi Calm Calm - N/A   Clear